When you browse on this site, cookies collect data to enhance your experience and personalize the content and advertising you see.
Visit our Privacy Policy to learn more. By continuing to use the site, you agree to this use of cookies and data.
  • în România
  • Lista ţărilor
  • Pe 7 zile
  • Temperatura apei
  • Hartă satelitară
  • Meteo pe hartă
  • Widget-uri
  • user-avatar
    Intrare

    Meteo pe oră la Newport

    Astăzi, 20 Iunie, Joi

    Timp Temperatura Precipitaţii Vânt Presiune Umiditate
    00:00 +10°C° 0 mm 5 m/s 755 mmHg 92%
    01:00 +9°C° 0 mm 5 m/s 755 mmHg 92%
    02:00 +9°C° 0 mm 5 m/s 755 mmHg 91%
    03:00 +8°C° 0 mm 5 m/s 755 mmHg 91%
    04:00 +9°C° 0 mm 5 m/s 755 mmHg 91%
    05:00 +10°C° 0 mm 5 m/s 755 mmHg 90%
    06:00 +10°C° 0 mm 6 m/s 756 mmHg 90%
    07:00 +11°C° 0 mm 6 m/s 756 mmHg 84%
    08:00 +14°C° 0 mm 6 m/s 756 mmHg 79%
    09:00 +15°C° 0 mm 6 m/s 756 mmHg 73%
    10:00 +15°C° 0.1 mm 6 m/s 757 mmHg 74%
    11:00 +15°C° 0.1 mm 7 m/s 757 mmHg 76%
    12:00 +15°C° 0.1 mm 7 m/s 757 mmHg 77%
    13:00 +15°C° 0.1 mm 7 m/s 757 mmHg 77%
    14:00 +15°C° 0.1 mm 8 m/s 757 mmHg 78%
    15:00 +15°C° 0.1 mm 8 m/s 757 mmHg 78%
    16:00 +15°C° 0.1 mm 7 m/s 757 mmHg 79%
    17:00 +15°C° 0.1 mm 7 m/s 757 mmHg 80%
    18:00 +15°C° 0.1 mm 6 m/s 758 mmHg 81%
    19:00 +14°C° 0 mm 5 m/s 758 mmHg 84%
    20:00 +13°C° 0 mm 5 m/s 758 mmHg 87%
    21:00 +12°C° 0 mm 4 m/s 759 mmHg 90%
    22:00 +11°C° 0 mm 4 m/s 759 mmHg 89%
    23:00 +10°C° 0 mm 3 m/s 759 mmHg 88%

    Mâine, 21 Iunie, Vineri

    Timp Temperatura Precipitaţii Vânt Presiune Umiditate
    00:00 +9°C° 0 mm 3 m/s 759 mmHg 87%
    01:00 +9°C° 0 mm 3 m/s 759 mmHg 88%
    02:00 +9°C° 0 mm 3 m/s 760 mmHg 88%
    03:00 +8°C° 0 mm 3 m/s 760 mmHg 88%
    04:00 +9°C° 0 mm 3 m/s 760 mmHg 87%
    05:00 +10°C° 0 mm 3 m/s 760 mmHg 86%
    06:00 +10°C° 0 mm 3 m/s 760 mmHg 85%
    07:00 +12°C° 0 mm 3 m/s 761 mmHg 80%
    08:00 +13°C° 0 mm 3 m/s 761 mmHg 74%
    09:00 +14°C° 0 mm 3 m/s 761 mmHg 69%
    10:00 +16°C° 0 mm 3 m/s 761 mmHg 68%
    11:00 +15°C° 0 mm 4 m/s 762 mmHg 67%
    12:00 +17°C° 0 mm 4 m/s 762 mmHg 66%
    13:00 +17°C° 0 mm 4 m/s 762 mmHg 66%
    14:00 +17°C° 0 mm 4 m/s 762 mmHg 67%
    15:00 +17°C° 0 mm 4 m/s 762 mmHg 68%
    16:00 +17°C° 0 mm 4 m/s 762 mmHg 71%
    17:00 +15°C° 0 mm 4 m/s 762 mmHg 74%
    18:00 +15°C° 0 mm 4 m/s 762 mmHg 77%
    19:00 +14°C° 0 mm 3 m/s 762 mmHg 79%
    20:00 +13°C° 0 mm 3 m/s 763 mmHg 81%
    21:00 +11°C° 0 mm 3 m/s 763 mmHg 83%
    22:00 +11°C° 0 mm 3 m/s 763 mmHg 82%
    23:00 +10°C° 0 mm 2 m/s 763 mmHg 82%

    Poimâine, 22 Iunie, Sâmbătă

    Timp Temperatura Precipitaţii Vânt Presiune Umiditate
    00:00 +9°C° 0 mm 2 m/s 763 mmHg 82%
    01:00 +9°C° 0 mm 2 m/s 763 mmHg 82%
    02:00 +9°C° 0 mm 2 m/s 763 mmHg 83%
    03:00 +9°C° 0 mm 2 m/s 762 mmHg 83%
    04:00 +10°C° 0 mm 2 m/s 762 mmHg 82%
    05:00 +12°C° 0 mm 2 m/s 762 mmHg 81%
    06:00 +13°C° 0 mm 2 m/s 763 mmHg 80%
    07:00 +13°C° 0 mm 3 m/s 762 mmHg 77%
    08:00 +16°C° 0 mm 3 m/s 762 mmHg 74%
    09:00 +17°C° 0 mm 3 m/s 762 mmHg 72%
    10:00 +17°C° 0 mm 3 m/s 762 mmHg 70%
    11:00 +18°C° 0 mm 4 m/s 762 mmHg 69%
    12:00 +18°C° 0 mm 4 m/s 762 mmHg 67%
    13:00 +18°C° 0 mm 4 m/s 761 mmHg 66%
    14:00 +18°C° 0 mm 3 m/s 761 mmHg 65%
    15:00 +18°C° 0 mm 3 m/s 761 mmHg 64%
    16:00 +18°C° 0 mm 3 m/s 761 mmHg 66%
    17:00 +18°C° 0 mm 3 m/s 761 mmHg 69%
    18:00 +17°C° 0 mm 2 m/s 761 mmHg 72%
    19:00 +16°C° 0 mm 3 m/s 761 mmHg 75%
    20:00 +14°C° 0 mm 3 m/s 761 mmHg 79%
    21:00 +13°C° 0 mm 3 m/s 761 mmHg 82%
    22:00 +13°C° 0 mm 3 m/s 761 mmHg 85%
    23:00 +13°C° 0 mm 3 m/s 761 mmHg 87%

    23 Iunie, Duminică

    Timp Temperatura Precipitaţii Vânt Presiune Umiditate
    00:00 +13°C° 0 mm 4 m/s 760 mmHg 89%
    01:00 +13°C° 0 mm 4 m/s 760 mmHg 88%
    02:00 +13°C° 0 mm 4 m/s 760 mmHg 87%
    03:00 +13°C° 0 mm 4 m/s 760 mmHg 86%
    04:00 +13°C° 0 mm 4 m/s 760 mmHg 86%
    05:00 +14°C° 0 mm 4 m/s 760 mmHg 86%
    06:00 +15°C° 0 mm 4 m/s 760 mmHg 86%
    07:00 +17°C° 0 mm 4 m/s 760 mmHg 84%
    08:00 +18°C° 0 mm 4 m/s 760 mmHg 82%
    09:00 +19°C° 0 mm 4 m/s 760 mmHg 79%
    10:00 +20°C° 0 mm 5 m/s 760 mmHg 77%
    11:00 +21°C° 0 mm 5 m/s 760 mmHg 75%
    12:00 +22°C° 0 mm 5 m/s 760 mmHg 73%
    13:00 +22°C° 0 mm 6 m/s 759 mmHg 74%
    14:00 +21°C° 0 mm 6 m/s 759 mmHg 75%
    15:00 +21°C° 0 mm 6 m/s 759 mmHg 75%
    16:00 +21°C° 0 mm 6 m/s 758 mmHg 76%
    17:00 +21°C° 0 mm 6 m/s 758 mmHg 78%
    18:00 +21°C° 0 mm 6 m/s 758 mmHg 79%
    19:00 +20°C° 0 mm 6 m/s 758 mmHg 80%
    20:00 +20°C° 0 mm 6 m/s 758 mmHg 82%
    21:00 +18°C° 0 mm 7 m/s 759 mmHg 83%
    22:00 +18°C° 0 mm 7 m/s 758 mmHg 83%
    23:00 +18°C° 0 mm 7 m/s 758 mmHg 83%

    24 Iunie, Luni

    Timp Temperatura Precipitaţii Vânt Presiune Umiditate
    00:00 +18°C° 0 mm 7 m/s 758 mmHg 84%
    01:00 +18°C° 0 mm 7 m/s 757 mmHg 86%
    02:00 +18°C° 0 mm 7 m/s 757 mmHg 88%
    03:00 +17°C° 0 mm 7 m/s 757 mmHg 90%
    04:00 +17°C° 0.1 mm 6 m/s 757 mmHg 91%
    05:00 +19°C° 0.1 mm 6 m/s 757 mmHg 92%
    06:00 +19°C° 0.1 mm 5 m/s 757 mmHg 93%
    07:00 +20°C° 0 mm 5 m/s 758 mmHg 91%
    08:00 +20°C° 0 mm 4 m/s 758 mmHg 89%
    09:00 +21°C° 0 mm 4 m/s 758 mmHg 86%
    10:00 +21°C° 0 mm 4 m/s 758 mmHg 85%
    11:00 +21°C° 0 mm 3 m/s 759 mmHg 84%
    12:00 +22°C° 0 mm 3 m/s 759 mmHg 83%
    13:00 +23°C° 0.1 mm 2 m/s 759 mmHg 82%
    14:00 +23°C° 0.1 mm 2 m/s 759 mmHg 82%
    15:00 +23°C° 0.1 mm 2 m/s 759 mmHg 81%
    16:00 +24°C° 0 mm 2 m/s 759 mmHg 80%
    17:00 +24°C° 0 mm 2 m/s 759 mmHg 79%
    18:00 +25°C° 0 mm 2 m/s 759 mmHg 79%
    19:00 +24°C° 0.1 mm 3 m/s 759 mmHg 82%
    20:00 +22°C° 0.1 mm 3 m/s 759 mmHg 86%
    21:00 +21°C° 0.1 mm 4 m/s 759 mmHg 90%
    22:00 +21°C° 0.9 mm 4 m/s 759 mmHg 91%
    23:00 +21°C° 0.9 mm 4 m/s 759 mmHg 92%

    25 Iunie, Marţi

    Timp Temperatura Precipitaţii Vânt Presiune Umiditate
    00:00 +20°C° 0.9 mm 4 m/s 758 mmHg 93%
    01:00 +20°C° 0 mm 4 m/s 758 mmHg 94%
    02:00 +20°C° 0 mm 4 m/s 757 mmHg 94%
    03:00 +19°C° 0 mm 4 m/s 757 mmHg 94%
    04:00 +20°C° 0.2 mm 4 m/s 757 mmHg 94%
    05:00 +20°C° 0.2 mm 4 m/s 757 mmHg 94%
    06:00 +20°C° 0.2 mm 4 m/s 758 mmHg 94%
    07:00 +21°C° 0 mm 4 m/s 758 mmHg 92%
    08:00 +22°C° 0 mm 3 m/s 758 mmHg 90%
    09:00 +24°C° 0 mm 2 m/s 758 mmHg 88%
    10:00 +24°C° 0 mm 2 m/s 759 mmHg 86%
    11:00 +25°C° 0 mm 3 m/s 759 mmHg 84%
    12:00 +25°C° 0 mm 3 m/s 760 mmHg 82%
    13:00 +25°C° 0 mm 3 m/s 760 mmHg 83%
    14:00 +25°C° 0 mm 4 m/s 760 mmHg 83%
    15:00 +23°C° 0 mm 5 m/s 760 mmHg 83%
    16:00 +23°C° 0 mm 5 m/s 761 mmHg 83%
    17:00 +23°C° 0 mm 4 m/s 761 mmHg 84%
    18:00 +23°C° 0 mm 4 m/s 761 mmHg 84%
    19:00 +22°C° 0 mm 4 m/s 762 mmHg 87%
    20:00 +21°C° 0 mm 4 m/s 762 mmHg 91%
    21:00 +20°C° 0 mm 3 m/s 763 mmHg 94%
    22:00 +20°C° 0 mm 3 m/s 763 mmHg 94%
    23:00 +19°C° 0 mm 4 m/s 763 mmHg 93%
    Arată mai mult